Wind_Speed
34 33 32 31 31 30 30 27 24 22 20 19 18 18 18 18 19 21 22 24 26 28 29 30 30 30 29 29 29 29 29 28 28 27 27 27 26 25 24 23 23 22 22 22 22 21 21 21 21 21 21 21 22 22 23 23 23 22 21 20 20 20 20 21 22 22 23 23 24 24 24 23 21 18 16 16 18 20 21 21 21 20 19 20 22 24
35 35 33 32 32 32 32 30 27 24 22 20 19 19 18 19 19 20 21 22 24 26 28 30 31 31 30 30 29 29 29 28 28 27 27 26 25 24 24 24 24 22 21 21 21 21 21 21 21 21 21 20 21 21 22 23 24 24 24 24 23 23 23 23 24 23 23 22 23 23 23 22 20 18 16 18 20 21 22 21 20 19 19 20 23 24
34 34 33 32 33 33 34 33 30 27 24 21 20 20 20 20 20 21 22 22 24 26 28 30 31 32 31 31 30 30 29 28 28 28 27 26 25 25 26 27 26 23 22 21 21 21 21 21 21 21 21 21 21 21 22 23 24 25 26 26 26 26 26 25 25 24 23 21 21 21 21 21 19 18 17 19 20 21 21 21 19 19 19 20 22 23
33 32 33 33 34 35 36 35 33 29 26 24 22 21 21 21 22 22 22 23 24 26 28 30 32 33 33 32 31 30 30 29 29 28 27 26 26 26 28 28 26 24 22 22 22 23 23 23 23 22 22 22 21 21 22 23 24 24 25 26 26 27 26 25 24 22 21 20 19 19 19 19 19 18 18 19 20 21 20 19 18 18 18 19 20 21
34 34 35 35 36 37 38 37 34 31 28 26 24 23 23 23 23 24 24 24 25 27 28 30 31 33 33 33 33 32 31 30 29 28 27 26 26 27 28 27 25 24 23 23 23 24 25 25 24 24 24 23 23 22 22 23 23 23 24 25 26 26 25 23 21 20 18 18 18 18 18 19 20 20 19 20 20 20 19 18 17 17 17 17 18 20
37 37 37 37 38 38 38 37 35 32 29 27 26 25 25 25 25 25 26 26 27 27 28 29 31 32 33 34 34 33 32 31 30 28 27 27 28 28 28 26 25 24 23 24 25 26 26 26 26 25 25 25 24 23 22 22 22 23 23 24 25 25 23 20 19 17 17 16 16 16 16 19 22 23 22 21 20 19 18 17 17 16 16 17 19 20
39 39 38 38 38 38 38 38 36 33 30 29 28 27 27 27 27 27 28 28 28 28 29 30 31 32 33 34 34 35 34 33 31 29 28 28 29 29 29 28 27 26 26 26 27 27 27 27 26 26 26 26 25 24 23 21 21 22 23 24 24 23 21 19 17 17 16 16 15 14 15 18 22 25 24 22 19 18 17 17 17 17 18 19 20 21
40 40 39 38 38 38 38 37 36 33 31 29 29 29 29 29 29 29 29 29 29 29 30 30 31 32 33 34 35 35 35 34 32 30 29 29 29 30 30 30 30 30 30 29 28 27 27 27 27 26 26 26 26 25 23 21 20 20 22 23 23 22 20 19 18 17 16 15 14 13 14 17 21 24 23 21 19 18 18 18 19 19 20 21 20 19
39 39 39 39 38 37 37 37 35 33 31 30 30 30 30 30 30 30 30 31 31 31 31 31 32 33 34 34 35 35 35 34 33 31 30 30 30 30 30 31 31 31 31 30 29 27 28 28 27 26 26 27 27 26 24 21 19 19 20 21 21 21 20 19 18 17 15 14 13 14 17 20 22 24 23 23 22 21 21 21 22 22 21 21 19 17
39 39 39 39 39 38 36 36 35 34 32 31 31 31 31 31 31 32 32 33 33 33 33 33 33 33 34 34 34 34 34 34 33 32 31 30 30 30 30 31 31 32 31 30 28 28 29 29 28 27 26 27 27 27 24 21 19 19 20 20 21 21 21 20 19 17 15 13 14 17 21 24 25 26 26 26 26 26 25 24 24 23 21 20 18 18
37 38 38 39 39 39 37 37 36 34 33 32 32 32 32 33 33 33 34 35 35 35 35 35 34 34 34 34 34 33 33 33 32 32 32 31 30 30 31 31 32 31 31 29 29 29 30 29 28 27 26 26 26 26 24 21 19 18 19 20 21 21 22 21 20 18 15 13 15 19 23 26 28 28 29 29 29 28 26 25 23 22 20 20 20 19
34 35 36 37 36 36 37 37 36 35 34 33 32 33 34 34 34 34 35 36 37 37 37 37 36 36 35 34 34 33 32 32 32 32 32 31 31 31 31 32 32 31 30 29 30 30 30 29 28 26 25 25 24 24 23 22 20 19 19 20 21 21 22 21 20 18 16 14 14 17 21 24 27 29 30 30 29 27 25 24 22 21 21 22 21 21
33 34 35 36 36 36 37 36 36 35 35 34 35 35 35 36 35 35 35 36 37 38 39 39 39 38 37 36 35 34 33 32 32 32 32 32 32 31 32 32 32 32 30 30 31 31 30 29 28 26 25 24 23 23 23 23 22 21 20 20 21 21 22 22 21 19 17 15 14 15 17 20 23 27 29 29 28 26 25 23 23 23 23 23 22 21
33 33 33 34 35 36 36 36 36 36 36 37 37 38 38 37 37 36 36 37 38 39 39 39 40 40 39 38 37 35 34 33 33 32 32 32 32 32 32 33 33 32 31 31 31 31 30 29 28 27 25 24 23 24 25 24 23 22 21 20 21 21 22 22 21 20 18 16 15 15 15 17 19 23 26 28 28 26 25 24 23 23 23 22 21 20
32 32 32 33 34 34 35 36 36 37 37 38 38 38 38 38 38 38 38 38 39 39 39 39 40 41 41 40 39 38 37 36 34 33 33 33 33 33 33 33 33 33 32 32 32 32 31 31 30 28 26 25 25 26 27 26 25 23 22 21 21 21 22 22 22 20 18 17 16 15 15 16 18 20 22 24 24 24 23 22 22 22 22 21 19 18
34 33 34 34 34 34 35 35 36 37 37 38 37 37 37 38 39 39 39 39 39 39 38 38 39 40 41 42 41 40 39 38 37 36 35 34 34 33 33 33 34 34 33 33 33 33 33 33 32 30 28 27 28 29 28 27 26 24 22 21 21 22 22 22 22 20 19 17 16 16 16 17 17 19 20 21 21 21 21 22 22 22 22 20 19 17
36 36 36 36 35 35 36 36 36 36 36 36 36 36 37 37 38 39 39 39 39 38 38 37 37 37 39 41 42 41 40 39 37 37 36 35 35 34 33 33 34 34 34 34 34 34 34 35 34 32 30 30 30 30 29 28 26 25 23 22 22 22 23 23 22 21 19 18 17 16 16 17 18 19 19 20 21 22 22 23 23 23 23 21 19 18
37 37 38 37 37 37 37 37 36 36 36 36 36 36 36 37 37 37 37 38 37 37 37 37 37 37 37 36 38 40 39 37 35 35 35 35 35 35 33 33 33 34 35 35 36 36 36 36 34 32 31 31 31 31 29 28 26 25 24 23 22 23 23 23 22 21 20 19 17 17 17 17 18 19 21 22 23 24 24 25 25 25 23 21 20 18
38 38 38 39 39 38 37 37 37 36 36 35 35 35 35 36 36 36 36 37 37 37 37 36 37 38 38 36 36 37 37 34 32 31 31 33 34 34 33 32 33 34 35 36 36 37 37 36 34 32 32 32 31 31 29 28 26 25 24 23 23 23 24 23 23 22 21 19 18 17 17 18 19 20 22 24 25 25 26 26 26 25 24 22 20 20
39 38 37 38 37 36 35 35 35 35 34 34 34 34 35 35 36 36 36 37 37 37 36 36 36 37 38 37 36 35 34 31 29 28 29 30 31 32 32 31 32 33 34 36 36 36 36 35 33 32 32 32 31 30 29 27 26 25 24 24 24 24 24 24 24 22 21 20 19 18 18 19 20 21 22 24 25 25 25 25 24 24 23 21 21 21
40 40 39 38 38 38 37 36 35 34 33 33 33 34 35 36 36 36 36 36 36 36 36 36 36 37 36 35 33 32 31 29 27 26 27 27 28 29 30 30 30 32 33 35 35 35 35 34 33 33 32 32 31 30 29 28 26 25 24 24 25 25 25 25 24 23 21 20 19 19 19 19 20 21 22 23 23 23 23 23 23 22 21 21 21 21
40 40 39 39 39 40 41 40 39 38 37 36 37 37 38 37 37 37 37 36 36 37 37 37 37 36 33 31 30 28 26 25 24 24 24 24 26 27 28 28 28 30 31 33 34 34 33 33 33 32 32 32 31 30 29 28 26 25 25 25 26 26 26 26 24 23 21 20 19 19 20 20 21 21 22 22 22 22 22 21 21 21 21 21 21 22
40 42 41 40 40 40 41 42 43 44 44 44 43 43 42 40 39 38 37 37 37 38 38 37 35 33 30 28 27 25 23 21 20 20 21 23 25 26 26 26 26 28 30 32 33 33 33 32 32 32 32 31 31 30 29 28 27 26 26 27 27 27 27 26 25 23 22 20 20 20 20 21 21 22 22 22 22 21 21 20 20 20 21 21 21 21
37 39 41 41 42 42 41 42 43 45 47 48 48 46 44 41 38 37 36 36 37 37 37 35 33 31 30 29 27 25 23 21 19 18 20 23 25 25 25 25 25 27 29 32 33 33 32 33 32 32 32 31 31 30 29 28 28 28 28 28 29 29 28 27 25 24 22 21 21 21 21 22 22 22 22 22 21 21 20 20 20 20 21 21 21 21
36 37 38 40 42 43 42 40 38 38 41 42 43 41 39 37 35 34 34 35 36 37 36 34 33 32 32 31 29 28 26 23 20 19 21 23 24 25 25 24 24 26 29 32 33 33 33 33 33 33 33 32 32 31 30 29 29 30 30 30 30 30 29 28 26 24 23 22 21 21 22 22 22 22 22 22 21 21 20 20 20 20 21 21 21 20
39 40 39 39 40 41 42 40 36 33 34 35 35 34 33 32 31 32 33 36 38 38 36 34 34 34 34 32 31 30 28 25 23 22 22 23 24 25 25 24 24 26 29 32 33 34 34 35 35 35 35 34 34 33 32 32 32 32 32 31 31 30 29 28 27 25 23 22 22 22 22 22 22 22 22 21 21 21 21 20 20 20 20 20 20 20
40 41 41 40 39 39 41 42 41 39 36 35 34 33 31 30 30 32 35 38 40 39 37 36 35 35 35 34 33 32 30 28 25 24 23 23 24 26 26 25 25 26 28 31 33 35 36 37 37 37 37 37 36 35 34 34 34 34 33 32 32 31 30 29 27 25 24 23 22 22 22 23 22 22 22 22 21 21 21 20 20 20 20 20 20 19
39 40 41 40 39 39 40 42 44 44 42 39 37 35 33 32 33 36 38 39 40 39 38 37 36 36 36 36 36 34 32 30 28 25 23 23 25 27 27 26 26 26 28 31 33 35 37 38 39 40 40 39 38 37 37 36 36 35 34 33 33 32 30 29 27 25 24 23 23 23 23 23 23 22 22 21 21 21 20 20 20 20 20 20 19 19
36 38 39 40 40 39 39 40 42 44 45 43 40 37 36 36 38 40 41 40 39 39 39 38 37 37 37 37 36 36 34 33 30 26 24 24 26 28 28 27 27 28 29 31 34 36 38 40 41 42 42 42 41 40 39 38 37 37 35 34 33 32 31 29 27 26 25 24 24 23 23 23 23 22 22 21 21 20 20 20 20 20 19 19 19 19
34 35 37 38 39 39 39 39 39 41 43 43 42 39 38 40 42 43 43 41 40 39 39 39 38 38 38 37 36 36 36 35 32 28 25 26 28 30 29 29 30 30 30 33 35 37 38 40 42 43 44 43 43 42 41 40 39 38 37 36 34 32 31 29 27 26 25 25 24 24 23 23 22 22 21 21 20 20 20 20 20 19 19 19 19 18
34 34 34 35 35 36 37 37 37 37 37 38 39 39 39 41 43 44 44 42 41 40 40 40 40 40 40 39 36 36 37 37 34 30 28 28 30 31 31 31 32 32 32 33 36 38 38 40 42 43 44 44 44 43 43 42 41 40 38 37 35 33 31 29 28 27 26 25 24 24 23 23 22 22 21 21 20 20 20 20 19 19 19 19 19 18
39 38 36 35 34 34 34 35 36 35 34 34 34 36 39 41 43 44 43 41 40 41 41 42 42 42 43 42 40 38 39 38 35 32 30 30 31 32 32 33 34 34 33 33 35 37 38 40 42 43 44 44 45 44 44 43 42 41 39 38 36 34 32 30 29 27 26 26 25 24 23 23 22 21 21 20 20 19 19 19 19 19 19 19 18 18
42 41 40 39 37 35 34 34 35 34 34 33 33 34 36 38 41 43 42 41 39 39 41 42 42 43 44 44 43 42 40 38 35 33 31 31 32 33 33 34 34 34 34 34 35 37 38 41 42 42 43 44 45 45 44 43 42 41 40 38 36 35 33 32 30 29 27 27 25 24 24 23 22 21 20 20 19 19 19 19 19 19 19 19 18 18
41 41 41 41 40 38 37 35 35 35 35 35 35 35 36 36 38 40 40 39 38 38 39 41 42 43 45 45 44 42 40 38 36 34 33 32 33 34 34 35 35 35 35 35 36 37 39 41 42 42 43 43 44 44 45 44 43 41 40 38 37 35 34 33 31 30 29 27 26 25 24 23 22 21 20 20 19 19 19 19 19 18 18 18 18 19
40 40 39 39 39 39 39 38 37 36 36 36 37 37 37 36 36 37 38 39 38 38 38 40 41 42 45 45 44 42 40 38 37 36 35 33 33 34 34 35 36 36 36 37 37 38 39 40 41 42 43 43 43 43 44 44 43 41 40 38 37 36 35 34 32 31 30 28 27 26 25 24 22 21 21 20 20 20 19 19 18 18 18 18 19 19
38 38 37 36 36 37 38 38 38 38 37 38 38 38 38 38 37 37 38 39 39 38 38 39 39 41 43 44 43 42 39 38 37 37 36 35 34 34 34 35 35 35 36 37 38 39 39 40 40 41 42 43 43 43 43 43 43 41 40 38 37 36 35 34 33 32 30 29 28 26 25 24 23 22 20 20 19 19 19 18 18 18 18 18 19 20
37 36 35 35 35 36 36 37 37 38 38 39 40 39 39 38 37 38 39 40 40 39 39 38 39 40 41 42 41 39 37 37 37 37 37 35 34 33 34 34 34 34 35 36 37 38 39 39 39 39 41 43 44 44 44 43 42 41 40 39 37 36 36 35 34 32 31 29 28 27 25 24 23 21 20 19 19 19 19 18 18 18 18 19 20 21
36 36 35 35 35 35 35 36 37 38 39 40 40 41 40 38 38 39 40 41 41 40 40 40 40 41 42 41 39 38 37 36 37 37 36 35 34 33 33 33 33 33 33 34 35 37 39 40 39 38 39 41 44 45 45 44 43 42 41 40 39 37 36 36 35 33 32 30 28 27 25 24 23 21 20 20 19 19 19 19 18 18 19 20 21 21
34 34 35 35 35 35 35 35 36 37 38 40 41 41 40 39 38 39 41 42 42 42 42 41 42 42 41 40 38 36 36 36 36 36 35 34 33 32 32 32 32 31 31 31 33 35 38 40 41 40 40 40 42 43 45 45 44 43 42 41 39 38 38 37 36 34 33 31 29 27 26 25 23 22 21 20 20 20 20 20 19 20 20 21 22 23
33 34 35 36 36 36 36 36 36 36 37 38 39 39 39 38 38 39 40 42 43 43 42 41 41 41 39 37 35 34 35 35 35 35 34 34 32 32 31 31 31 30 30 30 31 34 37 39 41 42 41 41 41 43 44 44 44 44 43 42 40 39 39 38 37 36 34 32 30 28 27 25 24 22 21 20 20 20 20 20 20 20 21 22 23 24
33 34 35 36 36 37 37 37 36 36 36 35 35 36 37 37 39 40 41 42 42 42 41 40 39 38 36 34 32 32 33 34 34 34 34 33 31 30 30 31 32 31 29 29 30 32 34 37 39 41 41 41 41 42 43 44 44 44 44 44 43 42 41 39 38 37 35 33 31 30 28 26 24 23 21 20 20 20 19 19 19 19 20 22 23 24
34 34 35 35 36 36 36 37 36 36 35 35 34 35 36 37 39 41 42 43 43 42 41 39 38 37 35 32 30 30 31 32 33 33 33 32 31 30 30 32 33 32 30 28 28 29 32 35 37 40 41 41 41 41 42 43 44 44 44 44 44 42 41 40 39 38 36 35 33 31 29 27 25 23 22 21 20 20 19 19 19 19 20 21 22 23
35 35 35 35 35 35 36 36 36 35 34 34 34 34 35 37 39 41 43 45 44 43 40 38 37 36 34 32 30 30 31 32 33 33 32 31 31 30 31 33 34 33 30 28 27 28 30 32 35 38 39 40 41 41 42 42 43 44 44 44 44 43 42 41 40 39 38 36 34 32 30 28 26 24 23 21 20 20 20 20 20 20 20 21 22 23
36 36 36 35 35 35 35 35 35 35 34 34 34 34 35 37 39 41 43 44 44 42 39 37 35 34 33 32 31 31 32 32 33 33 33 32 31 32 33 34 35 34 31 28 27 27 29 31 34 36 37 39 40 40 41 42 43 44 44 45 45 45 45 44 42 41 39 38 36 34 32 30 27 25 23 22 21 21 21 21 21 21 21 22 23 23
37 37 37 36 35 34 34 34 34 34 34 34 34 34 35 36 39 41 43 44 43 41 38 37 36 35 34 33 32 32 32 33 33 34 34 33 33 33 34 35 34 33 31 28 26 26 27 29 32 34 36 38 39 40 40 41 42 43 44 45 45 45 45 44 43 42 40 39 37 36 33 31 28 26 24 23 22 22 22 22 22 22 22 23 24 24
38 37 37 37 36 34 34 35 35 35 35 35 34 34 34 36 38 41 43 43 42 40 38 37 37 37 36 34 32 32 33 34 34 35 35 35 35 34 34 34 33 31 29 27 26 25 25 25 27 31 34 37 38 40 40 40 41 42 43 44 45 45 44 44 43 42 41 40 38 37 35 32 30 27 26 24 24 23 23 23 23 23 23 24 24 24
37 37 37 37 36 35 35 35 35 35 34 34 34 34 34 36 38 41 43 43 41 39 38 37 37 37 36 34 33 33 33 35 35 36 36 36 36 35 34 33 32 30 28 27 26 25 25 24 26 29 33 36 38 39 40 40 40 41 42 44 45 45 45 45 44 43 42 40 39 37 35 33 31 29 27 26 25 24 24 24 23 23 24 24 25 25
37 37 37 37 36 36 36 36 36 35 34 34 34 34 34 36 38 41 42 42 41 39 38 38 38 37 36 34 33 33 33 35 36 37 37 36 36 35 34 33 32 30 29 28 27 26 26 25 26 29 32 35 38 39 40 40 40 40 41 42 43 44 44 44 44 43 42 41 39 37 36 34 32 30 29 27 26 25 25 25 25 25 25 25 25 25
36 37 37 37 37 37 37 36 36 35 35 35 35 35 35 36 39 41 42 42 41 40 40 40 39 37 35 34 33 33 33 34 35 36 37 36 36 35 35 34 33 32 31 31 29 28 27 27 28 29 31 32 35 37 38 39 39 39 39 40 41 42 43 43 43 42 42 41 39 37 35 34 32 30 29 28 27 26 26 26 26 26 26 26 26 26
37 37 37 37 37 37 37 36 35 35 36 36 36 36 36 37 39 41 42 42 41 41 41 40 39 37 35 33 32 32 33 34 35 36 36 37 36 36 35 35 34 34 33 33 31 30 29 28 29 29 30 31 32 34 36 37 38 37 38 39 39 40 41 42 42 41 41 41 39 38 36 34 32 30 29 28 28 27 27 27 27 27 28 28 28 27
37 37 36 36 36 36 36 36 36 36 37 37 37 37 37 38 40 41 41 41 41 41 41 40 38 36 33 32 32 32 33 34 35 36 36 36 36 36 36 36 35 35 35 34 33 32 31 30 29 29 30 31 32 32 33 35 36 36 37 38 38 38 39 40 40 40 40 40 39 38 36 34 32 31 30 29 29 29 29 29 29 29 29 29 29 28
Wind_Direction
275 275 276 277 279 279 276 274 272 272 272 272 274 274 274 273 271 268 263 256 249 243 236 228 223 220 220 221 223 226 229 232 238 245 252 257 259 257 256 255 255 255 254 252 250 247 244 243 244 246 249 251 253 252 251 248 245 244 244 243 244 246 249 252 255 256 258 260 261 261 259 255 251 245 240 236 234 234 236 239 243 247 249 250 247 242
277 278 278 279 279 278 276 273 272 272 272 273 274 275 275 274 271 267 263 257 249 241 233 228 225 224 224 225 227 229 232 237 243 250 255 258 257 255 254 254 253 252 251 250 248 245 243 243 244 245 246 249 250 251 251 248 246 245 246 248 251 253 255 255 254 254 255 260 264 264 260 253 246 240 235 233 233 235 238 242 245 246 246 244 242 240
280 280 279 278 277 276 275 273 272 271 272 273 274 275 275 274 271 267 262 256 249 242 235 231 229 228 229 229 231 233 237 242 248 253 256 256 255 254 254 253 252 250 248 248 248 247 247 246 246 245 245 246 248 250 251 251 249 248 248 251 254 257 258 256 253 251 253 259 263 263 257 249 242 236 232 231 232 235 238 242 244 244 242 241 240 241
278 277 275 273 273 273 273 273 273 272 271 271 272 273 273 273 271 268 262 257 251 246 241 237 234 234 234 234 235 237 241 246 251 254 255 253 252 253 254 254 251 247 246 247 249 250 251 250 249 247 245 244 244 247 250 251 251 251 252 253 256 258 258 255 251 249 252 258 261 258 249 240 235 232 232 232 233 234 237 239 241 243 242 243 243 244
272 271 271 271 271 272 272 273 273 272 269 268 269 270 271 271 270 268 264 259 254 249 246 243 241 240 239 239 239 241 244 248 252 253 251 248 248 250 252 252 249 244 243 245 249 252 254 254 252 249 245 243 242 244 247 249 251 252 253 254 256 257 257 253 250 250 254 258 259 253 243 232 227 228 232 234 235 236 237 239 242 245 247 249 249 249
270 270 271 272 272 273 274 275 274 272 268 265 265 266 268 269 268 267 265 261 256 252 249 247 246 245 244 243 242 243 246 250 253 252 249 246 245 247 249 249 246 242 242 244 249 253 255 256 254 251 247 243 242 242 244 246 248 250 251 253 255 255 254 252 250 251 254 256 255 250 240 228 224 225 230 234 238 239 241 244 247 251 253 253 250 246
271 271 271 272 272 273 274 275 274 271 267 264 262 262 263 265 266 266 265 263 260 256 252 250 248 247 246 246 246 246 249 252 254 253 249 245 244 246 248 248 246 244 244 246 249 253 256 257 256 253 248 244 242 241 242 244 246 248 249 251 252 253 252 251 251 253 254 255 254 250 241 228 223 224 229 236 241 244 246 249 251 252 251 247 242 238
274 272 272 271 271 271 272 272 272 270 267 264 263 262 261 261 262 263 264 263 261 259 256 253 250 248 247 247 248 249 251 253 254 253 249 247 246 247 248 249 249 249 248 249 251 253 256 257 257 255 251 246 242 240 240 241 243 245 246 248 248 249 249 250 251 253 254 255 254 250 241 230 225 226 232 239 245 248 248 249 248 245 240 235 232 231
275 275 274 272 271 270 270 269 268 267 266 265 265 264 263 262 261 261 261 261 261 260 259 257 254 251 249 248 248 250 251 253 253 252 250 248 247 248 249 250 251 251 251 252 252 252 253 255 257 257 253 247 242 239 238 239 240 241 242 243 244 244 246 247 249 250 251 250 245 239 234 230 228 230 235 241 244 245 244 242 238 233 229 227 228 232
275 276 276 275 273 271 269 267 266 265 264 264 265 265 264 264 263 261 260 259 258 258 258 258 257 255 252 250 249 250 251 252 252 251 250 249 248 249 249 250 250 251 251 251 250 249 248 251 254 257 255 248 242 238 236 237 238 238 238 238 239 240 243 244 245 245 244 238 230 226 226 226 226 228 231 235 236 236 234 231 228 225 225 228 234 240
274 275 275 276 276 274 272 268 265 263 261 262 264 265 264 263 261 261 260 259 257 256 256 256 256 256 255 253 251 250 250 250 250 249 249 248 248 248 249 249 249 249 249 248 247 245 244 246 251 255 254 248 241 237 236 237 237 236 234 234 235 237 239 241 241 240 237 229 223 221 223 224 224 224 225 226 227 227 225 223 223 226 231 238 244 248
271 272 274 275 275 275 275 273 268 263 260 260 261 262 260 260 259 258 258 258 258 257 257 256 255 255 255 254 253 251 250 249 249 248 247 247 246 246 247 248 248 247 245 244 244 243 242 244 249 252 251 244 239 236 236 237 237 236 233 231 231 234 236 238 238 237 235 230 223 221 222 224 225 225 224 223 223 222 223 225 230 236 242 247 249 250
268 269 270 272 273 273 274 273 270 266 262 258 257 258 258 257 258 257 257 257 258 258 258 258 257 256 254 254 254 253 252 251 250 249 247 245 244 243 244 246 246 244 241 240 241 241 241 243 246 248 245 239 235 235 236 237 237 236 232 229 229 231 233 235 235 236 235 233 230 227 226 227 228 228 228 227 227 227 230 234 239 244 248 249 249 247
268 268 268 268 269 269 269 269 267 265 262 259 257 255 255 257 258 259 259 259 259 259 260 261 261 259 257 256 255 255 255 254 253 252 249 246 243 241 242 243 244 242 239 238 239 240 240 242 244 243 239 233 232 233 235 236 236 235 232 229 228 229 231 232 233 234 235 235 235 235 235 233 231 230 230 230 231 233 236 239 243 246 248 248 246 243
267 267 266 266 265 264 264 265 265 264 264 263 261 259 258 258 259 260 260 261 261 261 262 262 262 262 261 259 258 258 258 258 257 255 253 249 245 242 240 241 242 241 238 237 237 238 240 242 243 240 233 229 230 232 234 235 235 234 231 229 228 228 230 231 232 234 235 237 239 241 242 240 235 231 228 229 230 233 236 239 243 246 247 246 242 239
268 267 266 264 263 261 261 261 261 263 264 265 264 263 261 260 259 260 260 261 262 262 263 264 264 264 263 261 260 260 260 260 259 258 255 252 248 244 241 240 240 239 237 235 235 236 239 242 242 238 231 228 230 232 233 234 234 233 231 229 228 229 229 230 232 234 236 238 240 243 245 243 238 232 228 227 229 232 236 240 244 247 248 245 241 237
271 268 266 264 262 261 262 260 259 259 261 262 263 263 262 261 261 261 260 261 261 263 263 263 264 264 264 263 262 261 261 261 260 259 257 254 251 247 243 240 240 239 237 235 234 235 237 240 240 235 229 228 230 233 234 234 233 232 231 230 229 229 230 231 232 234 236 238 240 242 243 243 238 232 228 228 230 233 236 240 244 247 248 245 240 237
272 270 268 266 264 262 262 261 259 257 258 259 260 261 262 263 262 262 261 261 261 261 262 262 262 261 262 262 263 263 262 262 261 260 258 255 252 249 245 242 240 239 237 235 234 234 236 238 237 233 228 229 231 233 234 234 233 233 232 232 231 230 230 231 232 234 236 237 238 239 240 238 234 230 226 227 229 232 235 238 241 244 246 244 241 238
270 269 267 267 267 266 264 260 258 256 256 256 257 258 260 261 262 262 262 262 261 261 261 261 261 261 261 261 261 262 263 263 262 261 259 256 254 250 246 242 240 239 238 236 235 235 236 236 234 231 229 230 232 233 234 234 234 233 233 233 232 231 230 231 232 234 235 236 237 236 235 234 231 227 225 225 227 229 232 235 239 242 244 243 242 240
268 267 265 264 265 266 265 262 258 257 256 257 258 259 259 259 260 261 262 263 263 263 263 262 262 262 263 262 261 262 263 263 263 262 260 258 255 251 246 242 239 238 237 236 235 235 234 233 231 229 229 231 232 233 232 233 233 233 234 234 233 231 230 231 232 233 235 236 236 234 232 231 229 227 225 225 226 228 231 234 237 241 243 243 243 243
265 266 263 262 261 262 263 263 262 260 259 259 259 259 258 259 259 260 262 264 265 265 265 264 264 264 265 265 264 263 263 263 262 261 260 258 255 251 246 241 238 236 236 235 235 234 233 231 228 227 228 230 231 231 230 230 231 232 234 235 234 232 231 231 232 233 235 236 235 233 230 229 228 227 226 226 226 228 231 234 237 240 242 243 244 244
262 264 264 263 261 260 260 261 262 263 262 259 257 256 255 256 257 259 262 264 266 266 266 266 268 269 270 269 268 265 263 262 260 258 258 257 254 251 246 240 237 235 234 234 234 233 231 229 227 227 228 229 230 230 229 229 229 231 233 234 233 231 230 230 231 233 234 235 234 231 228 227 227 227 227 227 227 229 231 233 236 238 240 242 243 244
261 260 260 261 262 261 261 261 262 263 262 259 256 254 253 254 255 258 262 266 269 270 271 273 274 274 272 270 268 265 261 258 255 254 253 253 251 249 244 239 235 233 233 233 232 231 230 228 227 227 228 229 230 230 229 228 229 231 233 233 232 231 230 230 231 232 234 234 232 229 226 225 225 226 226 227 228 229 230 232 234 236 238 240 241 242
271 266 262 260 259 259 260 262 264 263 259 255 253 252 253 253 255 258 263 267 270 271 270 271 270 269 267 264 262 259 256 252 248 246 246 247 248 247 243 238 233 232 232 232 231 230 229 228 228 228 228 229 230 230 229 230 231 232 233 232 231 229 229 229 231 232 233 232 230 227 225 224 224 225 226 227 227 228 229 230 232 234 236 238 240 241
282 279 273 266 260 256 255 260 264 262 254 249 246 247 249 251 254 258 262 265 266 264 262 261 261 260 259 258 256 254 252 248 243 239 240 242 245 245 242 236 232 231 231 230 230 229 228 228 228 228 228 229 229 230 230 231 232 233 232 230 228 227 228 228 230 231 231 230 228 226 224 224 224 224 225 226 226 227 228 229 231 233 235 237 239 241
281 281 280 275 268 259 254 256 260 261 257 252 250 249 249 250 253 257 259 259 257 254 251 251 252 254 255 255 253 251 250 247 242 237 236 237 241 243 241 235 232 231 231 230 229 228 227 227 227 227 227 227 228 229 230 231 232 232 230 228 226 226 226 228 229 229 229 228 227 225 224 224 224 224 225 225 226 226 227 229 231 233 235 238 240 242
279 279 279 278 274 267 260 257 257 260 262 263 262 261 257 254 253 253 253 251 249 247 244 244 246 248 251 251 251 250 249 246 242 237 234 234 238 241 240 235 233 233 233 230 228 227 226 225 226 226 226 226 226 227 229 230 231 231 228 226 225 225 226 227 228 228 227 227 226 225 224 224 224 224 225 225 226 226 228 229 231 233 236 238 241 242
280 279 278 278 277 274 269 263 260 259 261 263 265 265 263 258 253 250 248 247 246 244 242 241 242 244 245 247 249 250 249 247 243 238 233 232 236 239 238 235 233 233 233 230 227 225 223 222 222 223 223 224 224 226 227 228 229 228 226 225 224 225 226 226 227 226 226 225 225 224 224 224 224 224 224 225 225 226 228 229 232 234 237 239 241 242
282 280 279 278 278 277 275 271 266 262 260 260 260 261 260 257 252 248 245 244 243 243 243 243 243 243 244 246 248 250 250 248 244 239 233 231 233 236 235 235 234 233 232 228 225 222 220 219 219 219 219 220 222 223 224 225 225 224 223 223 223 224 225 225 225 225 224 224 224 223 223 223 223 224 225 225 226 226 228 230 232 235 237 239 241 241
282 281 280 279 278 278 277 276 272 267 262 259 257 256 256 253 250 247 243 240 239 241 244 245 245 244 244 243 243 245 246 247 245 240 233 230 231 232 232 233 233 232 230 226 221 217 215 216 216 215 215 216 218 220 221 222 222 222 221 220 221 222 223 223 223 223 223 223 223 223 222 223 223 224 225 225 226 226 228 230 233 235 237 238 238 237
283 282 280 279 279 279 279 279 276 272 265 259 255 254 253 249 246 243 240 237 237 239 242 245 246 245 243 239 235 235 240 245 245 240 234 230 229 229 229 230 230 230 228 225 219 213 211 212 213 213 213 213 215 217 219 221 221 221 220 219 219 219 220 220 221 221 221 222 222 222 222 222 223 224 225 225 226 227 228 231 232 234 235 236 235 233
283 282 280 278 278 278 279 279 278 274 268 261 256 254 251 245 240 237 236 237 238 239 241 243 245 246 245 242 238 237 241 246 246 242 237 231 229 228 228 228 229 229 228 228 224 217 211 210 210 210 210 211 212 215 217 219 221 221 221 219 218 218 218 218 218 219 219 220 221 221 221 222 224 225 225 225 226 227 229 230 231 232 233 233 231 228
283 282 280 279 277 276 276 276 276 273 268 263 260 257 253 244 237 235 236 238 240 241 241 242 243 245 245 244 243 243 246 249 250 247 243 236 231 228 228 227 228 228 228 229 228 224 219 215 212 210 209 210 211 213 215 218 220 220 220 219 218 218 218 218 217 218 218 219 219 220 220 222 223 224 225 225 226 227 229 230 230 230 230 229 227 224
284 283 282 280 278 276 274 274 273 272 268 264 261 260 257 250 242 237 236 238 241 242 242 242 243 244 244 242 241 242 245 248 250 250 247 240 234 230 229 227 227 227 227 226 225 223 222 220 217 213 210 210 211 213 214 216 218 219 219 219 218 217 218 218 218 218 218 219 219 219 220 221 222 223 224 224 226 227 229 229 228 228 227 225 223 220
284 283 282 281 279 277 274 273 272 271 269 266 263 261 259 257 251 245 241 242 243 245 245 244 244 245 245 242 240 240 242 245 248 250 248 243 238 234 230 228 226 226 226 225 223 221 220 221 220 216 212 210 210 212 214 215 216 217 218 218 217 218 219 220 220 219 220 220 220 220 221 222 222 223 224 224 226 228 229 228 226 224 223 221 219 216
281 281 279 278 277 275 274 272 270 269 269 267 266 264 262 260 257 252 248 246 247 248 249 247 246 245 246 244 243 242 243 247 250 250 249 246 242 237 232 229 228 226 226 225 224 222 220 219 220 219 215 211 209 210 213 215 216 216 216 216 216 217 219 220 221 221 221 220 220 221 221 222 223 223 224 224 226 228 228 227 224 222 219 217 215 214
275 275 275 274 274 273 271 270 268 267 267 267 267 268 267 265 261 256 251 249 248 249 250 248 245 244 244 244 244 245 247 250 252 252 250 248 244 239 234 231 230 229 227 226 225 224 221 218 217 217 215 213 211 210 211 213 214 214 214 214 214 215 217 219 220 221 221 221 221 221 221 222 223 223 222 223 224 226 227 225 223 219 217 215 213 211
271 272 272 272 272 272 270 268 267 265 265 265 267 269 271 270 265 260 254 250 248 248 248 245 243 241 241 241 243 246 249 251 251 251 249 247 245 241 236 233 232 231 231 230 228 226 223 219 215 212 212 213 213 213 213 213 213 212 213 214 214 215 216 217 219 219 220 220 220 220 221 221 221 221 220 220 221 223 224 223 221 217 215 213 211 209
268 270 271 271 271 271 270 269 267 265 265 266 268 271 273 272 269 264 259 254 250 248 246 243 240 239 239 240 242 245 247 248 247 247 245 244 243 241 238 235 234 234 234 233 232 230 227 223 219 215 212 211 211 213 215 215 214 213 213 213 213 214 215 217 218 218 218 218 218 218 219 219 220 219 219 220 220 222 223 223 220 216 213 211 209 207
269 269 269 269 270 270 270 270 269 268 268 269 271 272 273 272 269 266 262 258 254 250 245 241 239 238 239 240 241 242 242 243 243 242 240 239 239 239 239 238 237 236 236 235 233 232 229 226 224 222 220 216 212 211 212 213 214 214 213 210 209 210 213 215 216 217 217 217 217 217 218 218 218 218 219 220 222 223 224 224 221 218 214 210 207 204
269 268 267 267 267 267 267 268 269 270 270 271 272 272 271 269 266 264 262 258 254 249 245 239 236 236 236 236 236 236 237 238 238 237 236 235 235 236 239 241 241 239 238 236 234 232 231 227 225 224 223 221 218 216 214 214 215 215 214 211 211 211 213 214 215 216 216 216 216 217 217 218 218 218 218 219 221 222 223 223 222 219 214 212 209 206
269 268 266 265 265 264 265 265 266 267 268 269 270 270 268 266 263 260 257 253 250 246 242 237 234 233 232 231 230 231 232 233 234 234 233 233 233 235 238 241 242 241 239 237 235 233 231 228 226 224 223 222 220 217 216 216 216 216 216 215 214 213 212 213 214 215 214 214 215 216 216 217 217 218 218 218 219 219 219 219 219 217 213 210 208 207
272 271 270 269 268 267 266 264 264 263 264 265 267 267 266 263 261 257 253 249 245 243 240 236 232 229 228 227 226 226 228 230 231 232 232 232 233 236 238 240 241 240 238 235 233 231 230 228 226 225 225 224 222 219 218 216 216 216 216 216 214 210 205 208 212 214 213 213 214 214 215 216 216 217 217 217 217 216 216 215 215 212 209 207 206 205
275 275 275 274 273 272 269 266 263 262 262 263 264 264 262 259 257 253 250 246 243 240 238 234 230 227 225 223 223 223 225 227 228 230 231 232 234 236 239 240 240 239 236 231 228 227 226 225 225 224 224 224 223 222 220 219 217 215 215 215 215 213 210 211 212 212 212 212 213 214 214 215 215 215 215 215 214 214 213 213 211 208 205 203 203 202
275 274 273 273 272 270 268 266 264 263 262 263 263 261 258 256 253 250 247 243 240 238 235 231 227 224 222 221 221 221 223 224 225 227 228 230 232 235 236 237 238 236 233 229 226 224 224 223 223 223 223 223 222 222 221 220 219 217 215 215 215 216 218 218 217 214 212 211 212 212 213 213 213 213 213 213 212 211 210 210 209 206 202 200 200 199
272 271 270 270 268 267 265 265 264 263 262 262 262 261 258 255 252 249 245 242 238 235 233 230 226 221 219 219 219 220 220 222 223 224 225 226 227 229 231 233 234 233 231 227 225 225 228 230 229 225 222 220 220 221 222 222 220 217 215 214 214 214 215 216 217 216 216 214 212 211 212 212 211 211 211 211 210 209 208 208 206 204 200 199 198 197
269 268 268 267 266 265 265 264 263 261 260 260 261 261 259 255 252 248 244 241 237 234 232 229 225 221 219 218 218 218 218 219 220 220 221 221 222 222 223 225 227 227 226 224 223 226 230 234 234 231 225 219 217 218 220 222 221 219 216 215 214 213 213 213 215 217 217 216 214 212 211 210 209 209 210 210 208 207 206 205 204 201 199 197 197 195
269 269 268 267 266 265 264 263 261 259 258 259 261 262 260 256 251 247 243 239 235 232 230 227 223 220 219 219 219 218 217 218 217 217 218 217 217 217 217 218 218 219 218 218 219 221 225 228 230 230 228 224 220 218 219 220 220 220 218 217 216 214 214 214 215 216 217 217 215 214 212 210 209 208 209 208 206 205 204 203 201 199 197 196 195 194
270 270 269 268 266 264 262 261 259 257 257 258 260 261 260 256 252 248 242 237 233 230 227 224 221 218 217 218 219 218 217 217 216 216 215 214 214 213 213 213 213 213 213 214 215 217 219 221 223 225 226 226 224 222 221 220 220 219 218 218 217 217 216 215 215 215 216 216 215 214 213 212 212 212 210 207 205 203 202 201 199 197 195 195 194 193
272 271 270 268 266 263 261 259 257 256 257 258 259 259 258 255 251 246 241 236 232 228 225 223 220 217 215 216 217 217 217 216 215 214 213 213 212 211 211 211 211 210 210 210 211 213 215 215 217 220 223 223 223 223 222 222 220 218 216 217 217 218 217 216 214 214 215 215 215 214 212 212 212 212 211 208 206 203 202 200 198 196 194 194 193 192
273 272 270 268 265 263 261 259 257 256 256 257 258 257 255 252 248 243 238 232 228 225 223 221 218 216 215 215 216 217 216 215 214 212 211 212 212 211 212 212 212 210 208 207 207 208 209 208 208 211 216 219 222 223 223 223 221 217 214 214 216 217 217 215 214 214 215 215 214 213 211 209 209 209 209 208 205 203 201 199 197 195 194 193 192 191
Height
1447 1447 1448 1448 1448 1448 1447 1448 1448 1448 1448 1447 1447 1447 1447 1447 1447 1447 1447 1447 1447 1448 1448 1449 1449 1450 1451 1451 1452 1453 1453 1453 1454 1455 1456 1457 1457 1458 1458 1458 1459 1459 1459 1460 1460 1460 1461 1461 1462 1462 1463 1463 1464 1464 1465 1466 1467 1468 1469 1470 1471 1472 1472 1473 1474 1475 1476 1477 1477 1478 1478 1478 1479 1479 1480 1481 1481 1482 1483 1483 1484 1484 1485 1485 1486 1486
1444 1444 1445 1445 1445 1445 1445 1446 1446 1447 1446 1446 1446 1445 1445 1445 1445 1445 1445 1445 1446 1446 1446 1447 1448 1448 1449 1449 1450 1451 1451 1452 1452 1453 1454 1454 1455 1455 1456 1457 1457 1457 1458 1458 1458 1458 1459 1459 1460 1460 1461 1461 1462 1463 1463 1464 1465 1466 1467 1468 1468 1469 1470 1471 1472 1473 1474 1475 1475 1476 1476 1477 1477 1478 1478 1479 1480 1481 1481 1482 1482 1483 1483 1484 1484 1485
1442 1442 1442 1443 1443 1443 1443 1443 1444 1445 1445 1444 1444 1444 1444 1444 1444 1444 1444 1444 1444 1445 1445 1445 1446 1446 1447 1448 1448 1449 1449 1450 1450 1451 1452 1452 1453 1453 1454 1454 1455 1455 1456 1456 1456 1457 1457 1457 1458 1458 1458 1459 1460 1460 1461 1462 1463 1464 1465 1465 1466 1467 1468 1469 1470 1471 1472 1473 1473 1474 1474 1475 1476 1476 1477 1478 1478 1479 1480 1480 1481 1482 1482 1483 1483 1484
1440 1440 1440 1440 1440 1440 1440 1441 1442 1443 1443 1443 1442 1442 1442 1442 1442 1442 1442 1443 1443 1443 1443 1444 1444 1445 1445 1446 1446 1447 1447 1448 1448 1448 1449 1450 1451 1451 1452 1452 1453 1453 1453 1454 1454 1454 1455 1455 1456 1456 1457 1457 1458 1458 1459 1460 1461 1462 1463 1463 1464 1465 1466 1467 1468 1469 1470 1471 1472 1472 1473 1473 1474 1475 1476 1476 1477 1478 1478 1479 1480 1480 1481 1481 1482 1483
1438 1437 1437 1438 1438 1437 1438 1438 1439 1440 1441 1441 1440 1440 1440 1440 1440 1440 1441 1441 1441 1441 1442 1442 1443 1443 1443 1443 1444 1444 1445 1445 1446 1446 1447 1448 1448 1449 1449 1450 1450 1451 1451 1452 1452 1452 1453 1453 1453 1454 1454 1455 1456 1457 1457 1458 1459 1460 1461 1461 1462 1463 1463 1465 1466 1467 1468 1469 1470 1471 1471 1472 1473 1473 1474 1475 1475 1476 1477 1478 1478 1479 1479 1480 1481 1481
1434 1434 1434 1435 1435 1434 1435 1436 1437 1438 1438 1438 1438 1438 1438 1438 1438 1438 1439 1439 1439 1439 1440 1440 1440 1441 1441 1441 1442 1442 1443 1443 1443 1444 1445 1445 1446 1446 1447 1447 1448 1448 1449 1449 1450 1450 1450 1451 1451 1452 1452 1453 1453 1454 1455 1456 1457 1458 1458 1459 1460 1460 1461 1463 1464 1465 1466 1467 1468 1469 1470 1471 1472 1472 1473 1473 1474 1474 1475 1476 1477 1477 1478 1478 1479 1480
1431 1432 1432 1432 1432 1432 1433 1433 1434 1435 1435 1435 1435 1436 1436 1436 1437 1437 1437 1437 1437 1437 1438 1438 1438 1438 1439 1439 1439 1440 1440 1441 1441 1442 1442 1443 1443 1444 1444 1445 1445 1446 1446 1447 1448 1448 1448 1448 1449 1449 1450 1450 1451 1452 1453 1454 1455 1456 1456 1457 1458 1458 1459 1461 1462 1463 1464 1465 1466 1467 1468 1469 1470 1471 1471 1472 1472 1473 1474 1474 1475 1476 1477 1478 1478 1479
1428 1428 1429 1429 1429 1430 1430 1430 1431 1432 1433 1433 1433 1433 1433 1433 1434 1434 1434 1434 1435 1435 1435 1435 1436 1436 1436 1437 1437 1437 1438 1438 1438 1439 1440 1440 1441 1441 1442 1442 1443 1443 1444 1444 1445 1445 1446 1446 1447 1447 1448 1448 1449 1450 1451 1452 1453 1453 1454 1455 1456 1457 1458 1459 1460 1461 1462 1463 1464 1465 1466 1467 1468 1469 1469 1470 1471 1471 1472 1473 1474 1474 1475 1476 1477 1478
1426 1426 1426 1426 1427 1427 1427 1427 1428 1429 1430 1430 1430 1430 1430 1431 1431 1431 1432 1432 1432 1432 1432 1433 1433 1433 1433 1433 1434 1434 1435 1435 1436 1437 1437 1438 1438 1439 1439 1440 1440 1441 1441 1442 1443 1443 1443 1444 1444 1445 1445 1446 1447 1448 1448 1449 1450 1451 1453 1453 1454 1455 1456 1457 1458 1460 1461 1462 1463 1463 1464 1465 1466 1467 1468 1468 1469 1470 1471 1472 1473 1473 1474 1475 1476 1476
1424 1423 1423 1423 1423 1424 1425 1424 1425 1426 1427 1428 1428 1428 1428 1428 1428 1428 1428 1428 1428 1429 1429 1429 1429 1429 1430 1431 1431 1432 1432 1433 1433 1434 1434 1435 1436 1436 1437 1437 1438 1438 1439 1439 1440 1441 1441 1442 1442 1443 1443 1443 1444 1445 1446 1447 1448 1449 1450 1451 1452 1453 1454 1456 1457 1458 1459 1460 1461 1462 1463 1464 1464 1465 1466 1467 1468 1468 1469 1470 1471 1472 1473 1473 1474 1474
1421 1421 1421 1420 1420 1420 1421 1421 1422 1423 1424 1425 1425 1425 1425 1425 1425 1425 1425 1425 1425 1425 1426 1426 1426 1427 1427 1428 1428 1429 1429 1430 1430 1431 1432 1433 1433 1434 1434 1435 1435 1436 1436 1437 1438 1438 1439 1439 1440 1440 1441 1441 1442 1443 1444 1445 1446 1448 1448 1450 1451 1452 1453 1454 1455 1457 1458 1459 1460 1461 1462 1463 1463 1464 1465 1465 1466 1467 1468 1469 1470 1471 1471 1472 1472 1473
1419 1419 1419 1418 1418 1418 1418 1418 1418 1420 1421 1423 1423 1422 1422 1422 1422 1423 1422 1422 1422 1422 1422 1423 1423 1423 1424 1424 1425 1426 1427 1427 1428 1428 1429 1429 1430 1431 1432 1432 1432 1433 1434 1434 1435 1436 1436 1437 1437 1438 1439 1439 1440 1441 1442 1443 1444 1446 1447 1448 1449 1450 1451 1452 1453 1455 1456 1457 1458 1459 1461 1462 1462 1463 1463 1464 1465 1466 1467 1468 1468 1469 1469 1470 1471 1471
1417 1417 1417 1416 1416 1415 1415 1415 1415 1417 1418 1418 1419 1418 1418 1418 1419 1419 1419 1419 1419 1419 1419 1419 1419 1420 1421 1421 1422 1423 1423 1424 1424 1425 1426 1426 1427 1428 1429 1429 1429 1430 1431 1432 1433 1433 1433 1434 1435 1436 1437 1437 1438 1439 1440 1441 1442 1443 1445 1446 1447 1448 1449 1450 1452 1453 1454 1455 1456 1457 1458 1460 1461 1462 1462 1463 1464 1465 1466 1466 1467 1468 1468 1469 1469 1470
1414 1414 1414 1414 1413 1413 1412 1412 1413 1413 1413 1414 1414 1415 1415 1416 1416 1416 1416 1416 1416 1416 1416 1416 1416 1416 1417 1418 1419 1419 1420 1421 1421 1422 1422 1423 1423 1425 1426 1426 1427 1427 1428 1429 1430 1430 1431 1432 1433 1433 1434 1435 1436 1437 1438 1439 1440 1442 1443 1444 1445 1446 1448 1448 1450 1451 1452 1453 1454 1455 1456 1457 1458 1459 1460 1461 1462 1463 1464 1465 1465 1466 1467 1467 1468 1468
1411 1411 1411 1410 1410 1410 1410 1410 1409 1409 1409 1410 1411 1412 1413 1413 1413 1413 1413 1413 1413 1413 1413 1413 1413 1413 1413 1413 1414 1416 1417 1417 1418 1418 1419 1419 1420 1421 1423 1423 1423 1424 1425 1426 1427 1427 1428 1429 1430 1431 1432 1433 1434 1435 1436 1437 1438 1440 1441 1442 1443 1444 1446 1447 1448 1449 1450 1451 1452 1453 1454 1455 1456 1457 1458 1459 1460 1461 1462 1463 1463 1464 1465 1465 1466 1467
1408 1408 1408 1407 1406 1406 1407 1407 1407 1406 1406 1407 1408 1409 1410 1410 1410 1410 1410 1410 1410 1410 1410 1410 1410 1409 1409 1409 1410 1412 1413 1414 1414 1415 1415 1416 1417 1418 1419 1420 1420 1421 1422 1423 1424 1425 1426 1427 1428 1428 1429 1430 1431 1432 1433 1435 1437 1438 1439 1440 1441 1443 1443 1445 1446 1447 1448 1449 1450 1451 1452 1453 1454 1455 1456 1457 1458 1459 1460 1461 1462 1462 1463 1464 1464 1465
1405 1405 1404 1403 1403 1402 1403 1403 1403 1403 1404 1404 1405 1406 1406 1406 1407 1407 1407 1407 1408 1408 1407 1407 1407 1407 1406 1406 1406 1408 1409 1410 1411 1411 1412 1412 1413 1415 1416 1417 1417 1418 1419 1420 1421 1422 1423 1424 1425 1426 1427 1428 1429 1430 1432 1433 1435 1436 1437 1438 1439 1440 1442 1443 1444 1445 1446 1447 1448 1449 1450 1451 1452 1453 1454 1455 1456 1457 1458 1459 1460 1460 1461 1462 1463 1463
1403 1402 1401 1400 1399 1399 1399 1400 1400 1400 1400 1401 1402 1402 1403 1403 1404 1404 1404 1404 1405 1405 1404 1404 1404 1403 1403 1403 1403 1403 1405 1406 1407 1408 1408 1409 1409 1411 1413 1414 1414 1415 1416 1417 1418 1419 1420 1421 1422 1423 1424 1425 1427 1428 1430 1431 1433 1434 1435 1436 1437 1438 1439 1441 1442 1443 1444 1445 1446 1447 1448 1449 1450 1451 1452 1453 1454 1455 1456 1457 1458 1458 1459 1460 1461 1462
1399 1399 1398 1398 1397 1396 1396 1396 1396 1396 1396 1397 1398 1399 1400 1400 1400 1401 1401 1401 1401 1401 1401 1401 1401 1400 1400 1400 1400 1401 1402 1403 1404 1405 1405 1405 1406 1407 1409 1411 1411 1412 1413 1413 1414 1416 1417 1418 1419 1421 1422 1423 1425 1426 1428 1429 1430 1432 1433 1434 1435 1436 1438 1439 1440 1441 1442 1443 1444 1445 1446 1447 1448 1449 1450 1451 1452 1453 1454 1455 1456 1457 1458 1458 1459 1460
1396 1395 1395 1395 1395 1394 1393 1393 1393 1393 1393 1394 1395 1396 1397 1397 1397 1397 1397 1398 1398 1398 1398 1398 1397 1397 1397 1398 1398 1399 1400 1400 1401 1402 1402 1402 1403 1403 1405 1407 1408 1409 1409 1410 1411 1413 1414 1416 1417 1418 1420 1421 1423 1424 1426 1427 1428 1429 1431 1432 1433 1434 1435 1437 1438 1439 1440 1441 1442 1443 1444 1445 1446 1447 1448 1449 1450 1451 1452 1453 1454 1455 1456 1456 1457 1458
1393 1391 1391 1393 1393 1392 1391 1391 1391 1391 1391 1391 1392 1393 1393 1393 1393 1393 1393 1394 1394 1394 1395 1395 1394 1393 1394 1395 1396 1397 1398 1398 1399 1399 1399 1399 1399 1400 1402 1403 1405 1406 1406 1407 1408 1410 1411 1413 1414 1416 1417 1419 1420 1422 1423 1425 1426 1427 1428 1430 1431 1432 1433 1435 1436 1437 1438 1439 1440 1441 1442 1443 1444 1445 1446 1447 1448 1449 1450 1451 1452 1453 1454 1454 1455 1456
1389 1388 1388 1389 1390 1389 1388 1388 1388 1388 1389 1389 1389 1389 1389 1389 1390 1390 1390 1391 1391 1391 1391 1391 1390 1391 1392 1393 1393 1394 1395 1396 1396 1397 1397 1397 1397 1397 1398 1400 1402 1403 1404 1404 1406 1407 1409 1410 1412 1413 1415 1416 1418 1420 1421 1422 1424 1425 1426 1428 1429 1430 1432 1433 1434 1435 1436 1437 1438 1439 1440 1441 1443 1443 1444 1445 1446 1447 1448 1449 1450 1451 1452 1453 1453 1454
1385 1384 1384 1385 1386 1385 1384 1385 1385 1385 1385 1385 1384 1383 1383 1385 1385 1386 1387 1388 1388 1388 1388 1388 1388 1389 1390 1390 1391 1391 1392 1393 1393 1394 1395 1394 1394 1394 1395 1398 1399 1400 1401 1402 1403 1405 1407 1408 1410 1411 1413 1414 1416 1417 1419 1420 1421 1423 1424 1426 1427 1428 1429 1431 1432 1433 1434 1435 1436 1438 1438 1439 1441 1442 1443 1443 1444 1445 1446 1447 1448 1449 1450 1451 1452 1452
1381 1380 1380 1381 1381 1382 1381 1382 1382 1382 1381 1380 1378 1378 1379 1380 1381 1382 1383 1384 1385 1385 1386 1386 1386 1387 1387 1387 1388 1388 1389 1390 1391 1392 1393 1392 1391 1392 1393 1395 1397 1398 1399 1399 1401 1403 1404 1406 1408 1409 1411 1412 1414 1415 1417 1418 1419 1421 1422 1423 1425 1426 1427 1428 1430 1431 1432 1433 1434 1435 1437 1438 1438 1440 1441 1442 1443 1443 1444 1445 1446 1447 1448 1449 1450 1450
1378 1377 1377 1377 1377 1378 1378 1379 1379 1379 1378 1376 1375 1375 1376 1377 1378 1379 1380 1381 1382 1382 1383 1383 1383 1383 1383 1383 1384 1385 1385 1387 1388 1389 1390 1390 1389 1390 1391 1393 1394 1396 1396 1397 1398 1400 1402 1404 1405 1407 1409 1410 1412 1413 1414 1416 1417 1418 1420 1421 1423 1424 1425 1427 1428 1429 1430 1431 1433 1433 1435 1436 1437 1438 1438 1440 1441 1442 1443 1443 1444 1445 1446 1447 1448 1448
1375 1374 1373 1373 1373 1374 1374 1375 1376 1377 1377 1375 1374 1373 1373 1374 1375 1376 1377 1378 1378 1378 1379 1379 1378 1378 1379 1380 1381 1382 1383 1384 1386 1387 1387 1388 1388 1388 1388 1390 1392 1393 1394 1395 1397 1398 1400 1402 1403 1405 1406 1408 1409 1411 1412 1413 1414 1416 1418 1419 1420 1422 1423 1424 1426 1427 1428 1429 1430 1432 1433 1434 1435 1436 1437 1438 1439 1440 1441 1442 1443 1443 1444 1445 1446 1447
1372 1371 1370 1370 1370 1370 1371 1370 1371 1372 1373 1373 1372 1370 1370 1371 1372 1373 1373 1373 1374 1375 1375 1375 1374 1375 1376 1377 1377 1378 1379 1381 1383 1383 1385 1386 1386 1386 1386 1388 1390 1391 1392 1393 1395 1396 1398 1399 1401 1402 1403 1405 1406 1408 1409 1411 1412 1414 1415 1417 1418 1419 1421 1422 1423 1425 1426 1427 1428 1430 1431 1432 1433 1434 1435 1436 1437 1438 1439 1440 1441 1442 1442 1443 1444 1445
1368 1368 1367 1366 1366 1366 1366 1367 1366 1367 1367 1368 1368 1368 1368 1368 1368 1368 1367 1368 1370 1372 1371 1371 1371 1372 1373 1373 1373 1375 1377 1378 1379 1381 1383 1384 1384 1383 1384 1386 1388 1389 1390 1391 1393 1394 1396 1397 1398 1399 1401 1402 1404 1405 1407 1408 1410 1412 1413 1414 1416 1417 1418 1420 1421 1423 1424 1425 1427 1428 1429 1430 1431 1432 1433 1434 1435 1436 1437 1438 1438 1439 1440 1441 1442 1443
1365 1364 1363 1363 1362 1362 1362 1362 1362 1362 1362 1363 1364 1365 1364 1364 1363 1362 1362 1365 1368 1369 1368 1367 1368 1369 1369 1369 1371 1372 1374 1375 1376 1378 1381 1382 1381 1381 1382 1384 1385 1386 1388 1389 1390 1392 1393 1394 1395 1397 1398 1400 1401 1403 1404 1406 1408 1409 1411 1412 1414 1415 1417 1418 1419 1421 1422 1423 1424 1426 1427 1428 1429 1430 1431 1432 1433 1434 1435 1436 1437 1438 1438 1439 1440 1441
1362 1361 1360 1359 1359 1359 1358 1358 1358 1358 1358 1358 1359 1360 1361 1360 1359 1358 1358 1361 1363 1364 1364 1364 1365 1366 1367 1368 1368 1369 1370 1370 1372 1375 1378 1379 1378 1378 1379 1381 1382 1383 1384 1386 1388 1389 1390 1391 1392 1394 1395 1397 1398 1400 1401 1403 1404 1406 1408 1410 1411 1413 1414 1416 1417 1419 1420 1421 1423 1424 1425 1426 1427 1428 1429 1430 1431 1432 1433 1434 1435 1436 1437 1438 1439 1440
1358 1358 1357 1356 1355 1355 1355 1354 1353 1353 1354 1355 1355 1356 1357 1357 1355 1354 1355 1356 1358 1358 1360 1361 1363 1363 1364 1364 1365 1365 1365 1366 1369 1372 1375 1376 1375 1375 1377 1378 1379 1380 1381 1383 1384 1385 1387 1388 1389 1391 1392 1394 1395 1397 1398 1400 1401 1403 1405 1407 1409 1410 1412 1414 1415 1417 1418 1419 1421 1422 1423 1424 1425 1426 1427 1428 1429 1430 1431 1432 1433 1434 1435 1436 1437 1438
1354 1353 1353 1352 1352 1352 1351 1351 1350 1350 1350 1351 1352 1352 1353 1353 1352 1351 1351 1351 1352 1354 1356 1357 1359 1360 1360 1360 1361 1361 1361 1363 1366 1369 1371 1373 1373 1373 1374 1375 1376 1377 1379 1380 1381 1382 1383 1384 1386 1388 1389 1391 1393 1394 1396 1397 1399 1401 1402 1404 1406 1408 1410 1412 1413 1415 1416 1418 1419 1420 1421 1422 1423 1424 1425 1426 1427 1428 1429 1430 1431 1432 1433 1434 1435 1436
1351 1350 1349 1349 1348 1348 1348 1347 1347 1347 1347 1347 1348 1348 1349 1349 1348 1348 1347 1347 1348 1350 1352 1353 1355 1356 1357 1357 1357 1358 1359 1361 1363 1365 1368 1369 1370 1370 1371 1373 1374 1375 1377 1378 1379 1380 1381 1381 1383 1385 1387 1388 1390 1392 1393 1395 1397 1398 1400 1402 1404 1406 1408 1409 1411 1412 1414 1415 1417 1418 1419 1420 1422 1423 1423 1424 1425 1426 1427 1428 1430 1431 1432 1433 1433 1434
1347 1347 1346 1345 1345 1345 1344 1344 1343 1343 1343 1343 1344 1345 1345 1346 1345 1345 1344 1344 1344 1346 1348 1349 1351 1352 1353 1354 1354 1355 1357 1358 1360 1362 1365 1366 1367 1367 1368 1370 1371 1372 1374 1376 1377 1378 1378 1379 1381 1383 1384 1386 1388 1389 1391 1393 1394 1396 1398 1400 1402 1403 1405 1407 1408 1410 1412 1413 1415 1416 1417 1418 1419 1421 1422 1423 1423 1424 1425 1427 1428 1429 1430 1431 1432 1433
1344 1343 1342 1342 1342 1341 1341 1341 1341 1340 1340 1340 1340 1341 1342 1342 1342 1342 1341 1341 1341 1342 1344 1345 1347 1348 1349 1350 1351 1352 1353 1355 1357 1359 1361 1363 1363 1365 1366 1367 1368 1369 1371 1373 1374 1375 1376 1377 1378 1380 1382 1384 1386 1387 1389 1390 1392 1394 1396 1398 1400 1402 1403 1404 1406 1408 1410 1411 1413 1414 1415 1416 1418 1418 1420 1421 1422 1423 1424 1425 1426 1428 1428 1429 1430 1431
1341 1340 1339 1339 1338 1338 1338 1338 1338 1337 1337 1337 1337 1337 1338 1338 1339 1339 1339 1339 1338 1339 1340 1342 1343 1344 1346 1347 1348 1349 1350 1352 1354 1356 1357 1359 1360 1362 1363 1364 1365 1367 1368 1370 1371 1373 1373 1375 1376 1378 1379 1381 1383 1384 1386 1388 1390 1392 1394 1396 1398 1400 1401 1403 1404 1406 1408 1409 1411 1412 1413 1415 1416 1417 1418 1419 1420 1421 1422 1423 1425 1426 1427 1428 1429 1430
1338 1337 1336 1336 1335 1335 1334 1334 1334 1334 1334 1333 1333 1333 1334 1334 1335 1336 1337 1337 1337 1337 1337 1339 1340 1342 1343 1344 1345 1347 1348 1350 1351 1353 1354 1356 1358 1359 1360 1361 1363 1364 1366 1367 1368 1370 1371 1373 1374 1376 1378 1378 1379 1381 1383 1385 1388 1390 1392 1394 1396 1398 1399 1401 1403 1404 1406 1408 1409 1410 1412 1413 1414 1415 1416 1417 1418 1419 1420 1422 1423 1424 1425 1426 1428 1428
1334 1333 1333 1332 1332 1331 1331 1330 1330 1330 1330 1330 1330 1330 1330 1331 1332 1333 1334 1334 1334 1334 1335 1336 1337 1339 1340 1342 1343 1345 1346 1347 1348 1349 1351 1353 1354 1356 1357 1358 1360 1362 1363 1364 1366 1367 1369 1370 1372 1373 1374 1376 1377 1378 1380 1382 1385 1387 1389 1391 1393 1395 1397 1398 1400 1402 1404 1406 1408 1409 1410 1411 1412 1413 1414 1415 1416 1417 1418 1419 1421 1422 1423 1425 1426 1427
1330 1329 1329 1328 1328 1328 1327 1327 1327 1327 1327 1327 1327 1327 1328 1328 1328 1329 1330 1331 1332 1332 1332 1333 1334 1336 1338 1339 1341 1342 1343 1343 1344 1346 1348 1349 1351 1353 1354 1356 1358 1359 1361 1362 1363 1365 1366 1367 1368 1369 1371 1373 1375 1376 1378 1380 1382 1384 1387 1389 1392 1393 1395 1396 1398 1400 1402 1404 1405 1407 1408 1409 1410 1412 1413 1413 1414 1415 1416 1417 1419 1420 1422 1423 1424 1425
1327 1326 1325 1325 1325 1324 1324 1323 1323 1323 1324 1324 1324 1324 1324 1324 1325 1325 1326 1327 1328 1329 1329 1330 1332 1333 1334 1336 1338 1338 1339 1340 1341 1343 1344 1346 1348 1350 1352 1353 1355 1356 1358 1360 1361 1362 1363 1364 1366 1367 1368 1370 1372 1373 1376 1378 1379 1381 1384 1386 1388 1390 1392 1393 1396 1398 1400 1402 1403 1404 1406 1407 1408 1410 1411 1412 1413 1413 1415 1416 1417 1418 1420 1421 1422 1423
1323 1323 1322 1321 1321 1321 1321 1320 1320 1321 1321 1321 1321 1321 1321 1321 1321 1322 1322 1323 1324 1325 1326 1327 1329 1330 1332 1333 1334 1335 1336 1337 1338 1339 1341 1343 1345 1347 1349 1351 1352 1354 1356 1357 1358 1359 1360 1362 1363 1365 1367 1368 1369 1371 1373 1375 1377 1379 1381 1382 1384 1386 1388 1391 1393 1395 1398 1399 1401 1403 1404 1405 1407 1408 1409 1410 1411 1412 1413 1415 1416 1418 1419 1420 1421 1422
1320 1319 1318 1318 1318 1317 1317 1317 1318 1318 1318 1318 1318 1318 1318 1318 1318 1318 1319 1319 1320 1321 1322 1323 1325 1327 1328 1329 1330 1331 1332 1333 1335 1336 1338 1340 1342 1344 1346 1348 1349 1351 1353 1354 1356 1357 1358 1359 1361 1362 1364 1365 1367 1369 1371 1373 1375 1377 1378 1380 1382 1385 1387 1389 1391 1393 1395 1397 1399 1400 1402 1403 1405 1406 1407 1408 1410 1411 1413 1414 1415 1416 1418 1419 1420 1421
1316 1315 1315 1314 1314 1314 1314 1314 1314 1314 1314 1314 1314 1314 1314 1314 1315 1315 1315 1315 1316 1316 1318 1319 1321 1322 1324 1325 1327 1328 1329 1330 1332 1334 1335 1338 1339 1341 1343 1345 1347 1348 1350 1352 1353 1354 1356 1357 1359 1360 1362 1363 1364 1366 1368 1370 1372 1374 1376 1378 1380 1382 1384 1386 1388 1390 1393 1394 1396 1398 1400 1401 1403 1404 1406 1407 1408 1410 1411 1412 1413 1415 1416 1418 1419 1420
1313 1312 1312 1311 1311 1311 1311 1311 1311 1311 1311 1311 1311 1311 1312 1312 1312 1312 1312 1312 1312 1313 1314 1316 1318 1319 1321 1322 1323 1324 1326 1328 1329 1331 1333 1335 1337 1339 1341 1342 1344 1346 1348 1349 1351 1352 1354 1355 1357 1358 1360 1361 1363 1364 1365 1367 1369 1371 1373 1375 1377 1378 1379 1381 1383 1387 1389 1392 1394 1396 1398 1399 1401 1403 1404 1406 1407 1408 1409 1411 1412 1413 1415 1416 1418 1419
1310 1309 1309 1308 1308 1308 1308 1307 1308 1308 1308 1308 1308 1308 1309 1309 1309 1309 1308 1308 1308 1310 1311 1313 1314 1316 1317 1318 1319 1321 1323 1325 1327 1329 1331 1333 1335 1337 1338 1340 1342 1343 1345 1347 1348 1350 1351 1353 1354 1356 1358 1359 1360 1362 1363 1365 1367 1369 1371 1373 1374 1376 1378 1380 1382 1384 1387 1389 1391 1393 1395 1397 1399 1401 1403 1404 1405 1407 1408 1409 1410 1412 1413 1415 1416 1418
1307 1306 1306 1305 1305 1305 1305 1304 1305 1305 1305 1305 1305 1305 1305 1306 1306 1306 1305 1305 1306 1307 1308 1309 1311 1313 1313 1315 1316 1318 1320 1322 1324 1326 1328 1330 1333 1335 1336 1338 1340 1341 1343 1345 1347 1348 1349 1351 1352 1354 1356 1357 1358 1360 1361 1362 1364 1366 1368 1370 1372 1374 1377 1379 1381 1382 1384 1386 1389 1391 1393 1395 1397 1399 1401 1402 1403 1405 1406 1408 1409 1410 1412 1413 1415 1417
1304 1303 1303 1303 1302 1302 1301 1302 1302 1302 1302 1302 1302 1302 1302 1303 1303 1303 1303 1303 1303 1304 1305 1307 1308 1309 1310 1312 1313 1314 1317 1318 1321 1323 1325 1327 1330 1332 1334 1336 1338 1340 1342 1343 1345 1347 1348 1349 1350 1352 1353 1354 1356 1357 1359 1360 1362 1364 1366 1368 1370 1372 1374 1376 1378 1380 1382 1384 1387 1389 1391 1393 1395 1397 1398 1400 1402 1403 1405 1406 1408 1409 1411 1413 1414 1416
1301 1301 1300 1299 1299 1299 1298 1298 1299 1299 1299 1299 1298 1299 1299 1299 1300 1300 1300 1300 1301 1301 1303 1304 1306 1307 1308 1309 1310 1312 1313 1316 1318 1320 1322 1324 1327 1329 1331 1333 1336 1338 1340 1342 1343 1345 1346 1348 1349 1350 1350 1351 1353 1354 1356 1358 1360 1362 1364 1366 1368 1369 1371 1373 1376 1378 1381 1383 1385 1387 1389 1391 1393 1394 1396 1398 1400 1401 1403 1404 1406 1408 1410 1412 1413 1415
1298 1297 1297 1297 1296 1296 1295 1295 1296 1296 1296 1296 1296 1296 1296 1296 1297 1297 1298 1298 1298 1299 1300 1301 1303 1304 1306 1307 1308 1309 1312 1314 1316 1318 1320 1322 1324 1326 1328 1330 1333 1335 1337 1339 1341 1343 1344 1346 1347 1348 1349 1350 1351 1352 1354 1356 1358 1360 1362 1364 1366 1367 1369 1372 1374 1376 1378 1381 1383 1386 1388 1389 1391 1393 1394 1396 1398 1399 1401 1403 1405 1406 1408 1410 1412 1414
1294 1294 1293 1293 1293 1293 1292 1292 1293 1293 1293 1293 1293 1293 1293 1293 1294 1295 1295 1295 1296 1296 1297 1298 1300 1302 1303 1304 1305 1307 1309 1312 1313 1316 1318 1319 1321 1323 1325 1328 1330 1332 1334 1337 1338 1340 1342 1344 1345 1346 1348 1349 1350 1352 1353 1354 1356 1358 1361 1363 1364 1366 1368 1370 1372 1374 1377 1379 1381 1384 1386 1388 1390 1392 1393 1395 1396 1398 1399 1401 1403 1405 1407 1409 1411 1413
1290 1290 1290 1289 1289 1289 1289 1289 1289 1289 1289 1290 1290 1290 1291 1291 1292 1292 1293 1293 1293 1294 1295 1297 1298 1299 1300 1302 1303 1305 1307 1309 1311 1313 1315 1317 1319 1321 1323 1325 1327 1329 1332 1334 1336 1338 1340 1342 1344 1345 1347 1348 1349 1350 1352 1353 1355 1357 1359 1361 1363 1364 1367 1368 1370 1373 1375 1377 1379 1382 1384 1387 1388 1390 1391 1393 1394 1396 1398 1400 1401 1403 1405 1408 1409 1411